Location: Tamazert
(32.6352°N, 5.2072°W)
Time: 23:38:25
(UTC+00:00)

Vanguard 1 Rocket - Pass Details

Date: 09 October 2022
Orbit: 650 x 4225 km, 34.3° (Epoch: 05 December)

Event Time Altitude Azimuth Distance (km) Brightness Sun altitude
Rises 23:41:00 0° 288° (WNW) 6,964 12.1 -63.2°
Reaches altitude 10° 23:46:32 10° 285° (WNW) 5,368 11.4 -63.4°
Enters shadow 23:49:10 16° 283° (WNW) 4,570 10.9 -63.6°
